Weather in Cao Bằng

Vietnam     22°39′43″N   106°16′06″E
temp.,
°C
wind,
m/s
gust,
m/s
humid.,
%
clouds,
%
prec.,
mm/h
press.,
hPa
HPBL,
m
17 october, sun
sun1701:00+15n3893100 0.7 1023521
04:00+14n389099 0.1 1023525
07:00+15n278768 0.1 1024451
10:00+20n466562 0.0 10241140
13:00+20nne3468100 0.0 10201205
16:00+20nne247188 0.0 1019841
19:00+17nne2479100 0.0 1021217
22:00+16nne1279100 0.0 102281
18 october, mon
mon1801:00+16nne1179100 0.0 102051
04:00+16n1180100 0.0 101946
07:00+16nne1182100 0.0 102045
10:00+17se0182100 0.0 1021169
13:00+17s1188100 0.1 1018124
16:00+16se0194100 0.1 101890
19:00+16se0196100 0.4 101946
22:00+16sw0096100 0.4 102039
19 october, tue
tue1901:00+16ssw0099100 3.4 101957
04:00+16e0198100 0.2 101844
07:00+17se0198100 0.2 101965
10:00+18sse1194100 0.0 1020199
13:00+18sse1292100 0.0 1017281
16:00+18sse1294100 0.0 1016194
19:00+18ene009697 0.0 101734
22:00+18se1297100 0.0 101888
20 october, wed
wed2001:00+18se1298100 0.1 1016113
04:00+18se1399100 0.1 1015116
07:00+19ese1298100 0.3 1017110
10:00+20se129798 0.1 1017206
13:00+23sse248698 0.3 1014582
16:00+23sse248755 0.3 1012567
19:00+21e229872 0.6 101448
22:00+21e1298100 0.4 101553
21 october, thu
thu2101:00+21ese1299100 2.7 101472
04:00+21ese1299100 4.9 1013103
07:00+17nne3795100 13.3 1016439
10:00+15n2696100 3.3 1019452
13:00+15n2595100 4.9 1017420
16:00+15n2694100 0.5 1017421
19:00+14nne2692100 0.8 1019367
22:00+14nne2688100 0.0 1020421